When you browse on this site, cookies collect data to enhance your experience and personalize the content and advertising you see.
Visit our Privacy Policy to learn more. By continuing to use the site, you agree to this use of cookies and data.
  • In Sweden
  • List of Countries
  • For 7 days
  • Water Temperature
  • Satellite Maps
  • Weather Map
  • Weather Widgets
  • user-avatar
    Login

    Hourly Weather Yoro

    Today, 20 January, Sunday

    Time Temperature Precipitation Wind Pressure Humidity
    00:00 +17°C° 0 mm 0 mps 700 mmHg 90%
    01:00 +16°C° 0 mm 0 mps 700 mmHg 91%
    02:00 +16°C° 0 mm 0 mps 700 mmHg 92%
    03:00 +18°C° 0 mm 1 mps 700 mmHg 93%
    04:00 +18°C° 0 mm 1 mps 701 mmHg 94%
    05:00 +18°C° 0 mm 1 mps 701 mmHg 96%
    06:00 +19°C° 0 mm 1 mps 701 mmHg 97%
    07:00 +21°C° 0 mm 1 mps 702 mmHg 89%
    08:00 +23°C° 0 mm 2 mps 702 mmHg 81%
    09:00 +24°C° 0 mm 2 mps 703 mmHg 73%
    10:00 +25°C° 0.1 mm 2 mps 703 mmHg 72%
    11:00 +25°C° 0.1 mm 2 mps 703 mmHg 71%
    12:00 +26°C° 0.1 mm 3 mps 703 mmHg 69%
    13:00 +24°C° 0.2 mm 2 mps 702 mmHg 77%
    14:00 +23°C° 0.2 mm 2 mps 702 mmHg 85%
    15:00 +21°C° 0.2 mm 2 mps 701 mmHg 92%
    16:00 +21°C° 0.4 mm 1 mps 701 mmHg 94%
    17:00 +21°C° 0.4 mm 1 mps 702 mmHg 95%
    18:00 +21°C° 0.4 mm 1 mps 702 mmHg 97%
    19:00 +21°C° 0.5 mm 1 mps 702 mmHg 97%
    20:00 +20°C° 0.5 mm 1 mps 703 mmHg 97%
    21:00 +19°C° 0.5 mm 2 mps 703 mmHg 97%
    22:00 +19°C° 0.8 mm 2 mps 703 mmHg 97%
    23:00 +19°C° 0.8 mm 2 mps 703 mmHg 97%

    Tomorrow, 21 January, Monday

    Time Temperature Precipitation Wind Pressure Humidity
    00:00 +19°C° 0.8 mm 2 mps 703 mmHg 97%
    01:00 +19°C° 1.2 mm 2 mps 703 mmHg 97%
    02:00 +19°C° 1.2 mm 2 mps 703 mmHg 97%
    03:00 +19°C° 1.2 mm 2 mps 702 mmHg 98%
    04:00 +18°C° 0.5 mm 2 mps 703 mmHg 98%
    05:00 +18°C° 0.5 mm 2 mps 703 mmHg 98%
    06:00 +18°C° 0.5 mm 2 mps 703 mmHg 98%
    07:00 +18°C° 0.2 mm 2 mps 703 mmHg 97%
    08:00 +18°C° 0.2 mm 2 mps 704 mmHg 97%
    09:00 +18°C° 0.2 mm 2 mps 704 mmHg 96%
    10:00 +18°C° 0.1 mm 2 mps 704 mmHg 94%
    11:00 +18°C° 0.1 mm 2 mps 704 mmHg 92%
    12:00 +19°C° 0.1 mm 2 mps 703 mmHg 90%
    13:00 +19°C° 0 mm 2 mps 703 mmHg 87%
    14:00 +20°C° 0 mm 2 mps 702 mmHg 84%
    15:00 +20°C° 0 mm 2 mps 702 mmHg 81%
    16:00 +19°C° 0 mm 2 mps 702 mmHg 86%
    17:00 +19°C° 0 mm 1 mps 702 mmHg 90%
    18:00 +18°C° 0 mm 1 mps 702 mmHg 94%
    19:00 +18°C° 0 mm 1 mps 702 mmHg 95%
    20:00 +18°C° 0 mm 1 mps 703 mmHg 96%
    21:00 +16°C° 0 mm 1 mps 703 mmHg 97%
    22:00 +15°C° 0 mm 0 mps 703 mmHg 96%
    23:00 +15°C° 0 mm 0 mps 702 mmHg 96%

    Day after tomorrow, 22 January, Tuesday

    Time Temperature Precipitation Wind Pressure Humidity
    00:00 +15°C° 0 mm 0 mps 702 mmHg 96%
    01:00 +15°C° 0 mm 0 mps 702 mmHg 96%
    02:00 +15°C° 0 mm 0 mps 701 mmHg 96%
    03:00 +15°C° 0 mm 0 mps 701 mmHg 96%
    04:00 +15°C° 0 mm 0 mps 701 mmHg 96%
    05:00 +15°C° 0 mm 0 mps 701 mmHg 96%
    06:00 +16°C° 0 mm 0 mps 701 mmHg 96%
    07:00 +18°C° 0 mm 0 mps 702 mmHg 89%
    08:00 +20°C° 0 mm 0 mps 703 mmHg 82%
    09:00 +24°C° 0 mm 1 mps 703 mmHg 74%
    10:00 +25°C° 0 mm 1 mps 703 mmHg 71%
    11:00 +26°C° 0 mm 1 mps 703 mmHg 68%
    12:00 +26°C° 0 mm 1 mps 702 mmHg 65%
    13:00 +26°C° 0.1 mm 1 mps 701 mmHg 65%
    14:00 +26°C° 0.1 mm 1 mps 700 mmHg 65%
    15:00 +27°C° 0.1 mm 1 mps 700 mmHg 66%
    16:00 +25°C° 0.1 mm 1 mps 700 mmHg 74%
    17:00 +24°C° 0.1 mm 1 mps 700 mmHg 82%
    18:00 +22°C° 0.1 mm 1 mps 700 mmHg 90%
    19:00 +21°C° 0 mm 1 mps 700 mmHg 92%
    20:00 +21°C° 0 mm 1 mps 701 mmHg 94%
    21:00 +20°C° 0 mm 1 mps 701 mmHg 96%
    22:00 +20°C° 0 mm 1 mps 701 mmHg 96%
    23:00 +20°C° 0 mm 1 mps 701 mmHg 96%

    23 January, Wednesday

    Time Temperature Precipitation Wind Pressure Humidity
    00:00 +19°C° 0 mm 1 mps 701 mmHg 96%
    01:00 +19°C° 0 mm 1 mps 700 mmHg 96%
    02:00 +19°C° 0 mm 1 mps 700 mmHg 96%
    03:00 +19°C° 0 mm 1 mps 699 mmHg 96%
    04:00 +19°C° 0 mm 1 mps 700 mmHg 96%
    05:00 +19°C° 0 mm 1 mps 700 mmHg 96%
    06:00 +19°C° 0 mm 1 mps 700 mmHg 95%
    07:00 +21°C° 0 mm 1 mps 701 mmHg 87%
    08:00 +23°C° 0 mm 2 mps 701 mmHg 80%
    09:00 +25°C° 0 mm 2 mps 702 mmHg 72%
    10:00 +27°C° 0 mm 2 mps 702 mmHg 65%
    11:00 +28°C° 0 mm 2 mps 701 mmHg 58%
    12:00 +29°C° 0 mm 2 mps 701 mmHg 51%
    13:00 +30°C° 0 mm 2 mps 700 mmHg 49%
    14:00 +30°C° 0 mm 2 mps 699 mmHg 47%
    15:00 +30°C° 0 mm 2 mps 699 mmHg 46%
    16:00 +28°C° 0 mm 1 mps 699 mmHg 56%
    17:00 +26°C° 0 mm 1 mps 698 mmHg 66%
    18:00 +23°C° 0 mm 1 mps 698 mmHg 76%
    19:00 +23°C° 0 mm 1 mps 699 mmHg 81%
    20:00 +22°C° 0 mm 1 mps 699 mmHg 85%
    21:00 +21°C° 0 mm 1 mps 700 mmHg 90%
    22:00 +21°C° 0 mm 1 mps 700 mmHg 91%
    23:00 +20°C° 0 mm 1 mps 699 mmHg 92%

    24 January, Thursday

    Time Temperature Precipitation Wind Pressure Humidity
    00:00 +20°C° 0 mm 1 mps 699 mmHg 94%
    01:00 +18°C° 0 mm 0 mps 699 mmHg 94%
    02:00 +18°C° 0 mm 0 mps 699 mmHg 94%
    03:00 +18°C° 0 mm 0 mps 699 mmHg 94%
    04:00 +18°C° 0 mm 0 mps 699 mmHg 94%
    05:00 +18°C° 0 mm 0 mps 700 mmHg 94%
    06:00 +18°C° 0 mm 0 mps 700 mmHg 94%
    07:00 +21°C° 0.1 mm 1 mps 701 mmHg 89%
    08:00 +23°C° 0.1 mm 1 mps 702 mmHg 84%
    09:00 +24°C° 0.1 mm 1 mps 702 mmHg 79%
    10:00 +25°C° 0.2 mm 2 mps 702 mmHg 77%
    11:00 +25°C° 0.2 mm 2 mps 702 mmHg 75%
    12:00 +26°C° 0.2 mm 2 mps 701 mmHg 72%
    13:00 +26°C° 0.2 mm 2 mps 701 mmHg 73%
    14:00 +26°C° 0.2 mm 2 mps 700 mmHg 75%
    15:00 +25°C° 0.2 mm 2 mps 699 mmHg 76%
    16:00 +24°C° 0.1 mm 2 mps 700 mmHg 82%
    17:00 +23°C° 0.1 mm 1 mps 700 mmHg 88%
    18:00 +22°C° 0.1 mm 1 mps 700 mmHg 94%
    19:00 +21°C° 0 mm 1 mps 700 mmHg 95%
    20:00 +21°C° 0 mm 1 mps 701 mmHg 96%
    21:00 +20°C° 0 mm 1 mps 701 mmHg 97%
    22:00 +20°C° 0 mm 1 mps 701 mmHg 98%
    23:00 +18°C° 0 mm 0 mps 701 mmHg 98%

    25 January, Friday

    Time Temperature Precipitation Wind Pressure Humidity
    00:00 +18°C° 0 mm 0 mps 701 mmHg 98%
    01:00 +18°C° 0 mm 0 mps 701 mmHg 98%
    02:00 +18°C° 0 mm 0 mps 700 mmHg 98%
    03:00 +18°C° 0 mm 0 mps 700 mmHg 98%
    04:00 +18°C° 0 mm 0 mps 700 mmHg 98%
    05:00 +18°C° 0 mm 0 mps 701 mmHg 98%
    06:00 +18°C° 0 mm 0 mps 701 mmHg 97%
    07:00 +19°C° 0.4 mm 0 mps 702 mmHg 94%
    08:00 +20°C° 0.4 mm 0 mps 702 mmHg 90%
    09:00 +23°C° 0.4 mm 1 mps 703 mmHg 86%
    10:00 +22°C° 0.8 mm 1 mps 703 mmHg 88%
    11:00 +22°C° 0.8 mm 1 mps 702 mmHg 90%
    12:00 +22°C° 0.8 mm 1 mps 702 mmHg 92%
    13:00 +22°C° 1.3 mm 1 mps 701 mmHg 94%
    14:00 +21°C° 1.3 mm 1 mps 701 mmHg 95%
    15:00 +21°C° 1.3 mm 1 mps 701 mmHg 97%
    16:00 +21°C° 2.6 mm 1 mps 701 mmHg 97%
    17:00 +21°C° 2.6 mm 1 mps 702 mmHg 98%
    18:00 +21°C° 2.6 mm 1 mps 702 mmHg 98%
    19:00 +20°C° 2.9 mm 1 mps 703 mmHg 98%
    20:00 +20°C° 2.9 mm 1 mps 703 mmHg 98%
    21:00 +20°C° 2.9 mm 1 mps 704 mmHg 98%
    22:00 +20°C° 2.7 mm 1 mps 704 mmHg 98%
    23:00 +20°C° 2.7 mm 1 mps 703 mmHg 98%
    Show more